Flag for U.S.A. Weather past 2 weeks in Tallahassee, Florida, U.S.A.

Now
90 °F

Scattered clouds.


Feels Like: 97 °F
Forecast: 74 / 88 °F
Wind: 7 mph from West

Location: Tallahassee Regional Airport

Current Time: Jul 25, 2014 at 12:39:09 PM

Latest Report: Jul 25, 2014 at 11:53 AM


Visibility: 10 mi

Pressure: 30.05 "Hg

Humidity: 56%

Dew point: 72 °F

Location of TallahasseeLocation

Historic Weather in Tallahassee — Graph

°F

Tallahassee temperature yesterday

Maximum temperature yesterday: 92 °F (at 1:53 PM)
Minimum temperature yesterday: 72 °F (at 5:53 AM)
Average temperature yesterday: 80 °F

Past Weeks' High & Low Weather Summary

 TemperatureHumidityPressure
High96 °F (Jul 14, 2:53 PM)98% (Jul 21, 10:53 PM)30.16 "Hg (Jul 21, 10:53 PM)
Low69 °F (Jul 18, 5:53 AM)29% (Jul 17, 3:53 PM)29.85 "Hg (Jul 16, 6:53 PM)
Average80 °F75%30.03 "Hg
* Reported Jul 10 10:53 AM — Jul 25 10:53 AM, Tallahassee, Weather by CustomWeather, © 2014

Note: Actual official high and low records may vary slightly from our data, if they occured in-between our weather recording intervals... More about our weather records

Advertising

Tallahassee weather history for previous 24 hours

 ConditionsComfort  
Time TempWeatherWind HumidityBarometerVisibility
10:53 AM
Jul 25
88 °FPartly sunny.6 mph59%30.06 "Hg10 mi
9:53 AM85 °FScattered clouds.6 mph70%30.06 "Hg10 mi
8:53 AM80 °FPassing clouds.No wind81%30.06 "Hg10 mi
7:53 AM76 °FFog.No wind88%30.05 "Hg6 mi
6:53 AM75 °FLight fog.No wind90%30.03 "Hg7 mi
5:53 AM74 °FClear.No wind91%30.01 "Hg8 mi
4:53 AM75 °FClear.No wind90%30.01 "Hg7 mi
3:53 AM75 °FClear.No wind90%30.00 "Hg8 mi
2:53 AM76 °FClear.No wind91%30.00 "Hg10 mi
1:53 AM76 °FClear.No wind88%30.00 "Hg10 mi
12:53 AM77 °FClear.No wind88%30.01 "Hg10 mi
11:53 PM
Jul 24
78 °FPassing clouds.No wind84%30.02 "Hg10 mi
10:53 PM79 °FPassing clouds.No wind82%30.01 "Hg10 mi
9:53 PM81 °FPassing clouds.3 mph77%30.00 "Hg10 mi
8:53 PM82 °FScattered clouds.5 mph82%29.98 "Hg10 mi
7:53 PM85 °FScattered clouds.No wind70%29.96 "Hg10 mi
6:53 PM87 °FSunny.9 mph63%29.96 "Hg10 mi
5:53 PM86 °FScattered clouds.5 mph63%29.97 "Hg10 mi
4:53 PM80 °FBroken clouds.No wind79%29.97 "Hg10 mi
3:53 PM78 °FLight rain. Partly sunny.5 mph84%30.00 "Hg6 mi
2:53 PM84 °FBroken clouds.8 mph80%29.99 "Hg10 mi
1:53 PM92 °FPartly sunny.7 mph47%30.00 "Hg10 mi
12:53 PM91 °FPartly sunny.6 mph52%30.02 "Hg10 mi
Weather by CustomWeather, © 2014

See weather overviewHow to use our weather pages